Time,TemperatureF,DewpointF,PressureIn,WindDirection,WindDirectionDegrees,WindSpeedMPH,WindSpeedGustMPH,Humidity,HourlyPrecipIn,Conditions,Clouds,dailyrainin,SoftwareType,DateUTC
2013-04-25 00:00:00,42.0,16.0,-100.00,North,-999,-999.0,-999.0,34,-99.99,,,-99.99,,2013-04-25 07:00:00,
2013-04-25 00:52:00,42.0,16.0,-100.00,North,-999,-999.0,-999.0,34,-99.99,,,-99.99,,2013-04-25 07:52:00,
2013-04-25 01:00:00,42.0,20.0,-100.00,SW,214,5.0,8.0,41,-99.99,,,-99.99,,2013-04-25 08:00:00,
2013-04-25 02:00:00,43.0,24.0,-100.00,SSE,151,8.0,11.0,46,-99.99,,,-99.99,,2013-04-25 09:00:00,
2013-04-25 03:00:00,43.0,22.0,-100.00,SSW,209,8.0,10.0,44,-99.99,,,-99.99,,2013-04-25 10:00:00,
2013-04-25 04:00:00,42.0,22.0,-100.00,SW,217,6.0,8.0,45,-99.99,,,-99.99,,2013-04-25 11:00:00,
2013-04-25 05:00:00,42.0,24.0,-100.00,SW,221,6.0,9.0,49,-99.99,,,-99.99,,2013-04-25 12:00:00,
2013-04-25 08:00:00,44.0,29.0,-100.00,SW,225,5.0,7.0,55,-99.99,,,-99.99,,2013-04-25 15:00:00,
2013-04-25 08:42:00,44.0,29.0,-100.00,SW,225,5.0,7.0,55,-99.99,,,-99.99,,2013-04-25 15:42:00,
2013-04-25 08:53:00,44.0,29.0,-100.00,SW,225,5.0,7.0,55,-99.99,,,-99.99,,2013-04-25 15:53:00,
2013-04-25 09:00:00,47.0,29.0,-100.00,West,269,4.0,8.0,49,-99.99,,,-99.99,,2013-04-25 16:00:00,
2013-04-25 10:00:00,49.0,28.0,-100.00,ESE,122,4.0,7.0,44,-99.99,,,-99.99,,2013-04-25 17:00:00,
2013-04-25 11:00:00,50.0,28.0,-100.00,WSW,239,4.0,8.0,43,-99.99,,,-99.99,,2013-04-25 18:00:00,
2013-04-25 11:43:00,50.0,28.0,-100.00,WSW,239,4.0,8.0,43,-99.99,,,-99.99,,2013-04-25 18:43:00,
2013-04-25 11:53:00,50.0,28.0,-100.00,WSW,239,4.0,8.0,43,-99.99,,,-99.99,,2013-04-25 18:53:00,
2013-04-25 12:00:00,52.0,29.0,-100.00,NW,321,4.0,6.0,41,-99.99,,,-99.99,,2013-04-25 19:00:00,
2013-04-25 12:42:00,53.0,30.0,-100.00,NW,321,4.0,6.0,41,-99.99,,,-99.99,,2013-04-25 19:42:00,
2013-04-25 12:52:00,52.0,29.0,-100.00,NW,321,4.0,6.0,41,-99.99,,,-99.99,,2013-04-25 19:52:00,
2013-04-25 13:00:00,54.0,31.0,-100.00,North,350,3.0,5.0,41,-99.99,,,-99.99,,2013-04-25 20:00:00,
2013-04-25 13:43:00,54.0,31.0,-100.00,North,350,3.0,5.0,41,-99.99,,,-99.99,,2013-04-25 20:43:00,
2013-04-25 13:52:00,54.0,31.0,-100.00,North,350,3.0,5.0,41,-99.99,,,-99.99,,2013-04-25 20:52:00,
2013-04-25 15:00:00,54.0,31.0,-100.00,NW,318,2.0,4.0,41,-99.99,,,-99.99,,2013-04-25 22:00:00,
2013-04-25 15:42:00,54.0,31.0,-100.00,NW,318,2.0,4.0,41,-99.99,,,-99.99,,2013-04-25 22:42:00,
2013-04-25 15:53:00,54.0,31.0,-100.00,NW,318,2.0,4.0,41,-99.99,,,-99.99,,2013-04-25 22:53:00,
2013-04-25 16:00:00,56.0,33.0,-100.00,WSW,239,3.0,5.0,43,-99.99,,,-99.99,,2013-04-25 23:00:00,
2013-04-25 16:42:00,56.0,33.0,-100.00,WSW,239,3.0,5.0,43,-99.99,,,-99.99,,2013-04-25 23:42:00,
2013-04-25 16:52:00,56.0,33.0,-100.00,WSW,239,3.0,5.0,43,-99.99,,,-99.99,,2013-04-25 23:52:00,
2013-04-25 17:00:00,55.0,31.0,-100.00,SSW,206,3.0,6.0,41,-99.99,,,-99.99,,2013-04-26 00:00:00,
2013-04-25 17:42:00,55.0,31.0,-100.00,SSW,206,3.0,6.0,41,-99.99,,,-99.99,,2013-04-26 00:42:00,
2013-04-25 17:52:00,55.0,31.0,-100.00,SSW,206,3.0,6.0,41,-99.99,,,-99.99,,2013-04-26 00:52:00,
2013-04-25 18:00:00,53.0,29.0,-100.00,WSW,255,4.0,7.0,39,-99.99,,,-99.99,,2013-04-26 01:00:00,
2013-04-25 18:42:00,53.0,29.0,-100.00,WSW,255,4.0,7.0,39,-99.99,,,-99.99,,2013-04-26 01:42:00,
2013-04-25 18:52:00,53.0,29.0,-100.00,WSW,255,4.0,7.0,39,-99.99,,,-99.99,,2013-04-26 01:52:00,
2013-04-25 19:00:00,51.0,28.0,-100.00,SSW,208,5.0,8.0,40,-99.99,,,-99.99,,2013-04-26 02:00:00,
2013-04-25 20:00:00,46.0,28.0,-100.00,North,-999,-999.0,-999.0,49,-99.99,,,-99.99,,2013-04-26 03:00:00,
2013-04-25 21:00:00,48.0,30.0,-100.00,South,181,5.0,11.0,50,-99.99,,,-99.99,,2013-04-26 04:00:00,
2013-04-25 22:00:00,45.0,26.0,-100.00,SW,215,3.0,8.0,48,-99.99,,,-99.99,,2013-04-26 05:00:00,
2013-04-25 22:42:00,45.0,26.0,-100.00,SW,215,3.0,8.0,48,-99.99,,,-99.99,,2013-04-26 05:42:00,
2013-04-25 22:52:00,45.0,26.0,-100.00,SW,215,3.0,8.0,48,-99.99,,,-99.99,,2013-04-26 05:52:00,
2013-04-25 23:00:00,48.0,30.0,-100.00,SSW,205,6.0,9.0,49,-99.99,,,0.00,,2013-04-26 06:00:00,
2013-04-25 23:52:00,48.0,30.0,-100.00,SSW,205,6.0,9.0,49,-99.99,,,0.00,,2013-04-26 06:52:00,